This is the latest recevied weather packets stored in our database for station/object SP9MLI-1. If no packets are shown the sender has not sent any weather packets the latest 10 day(s).
| Time | Temp. | Humidity | Pressure | Rain* | Wind** | Luminosity | Snow |
|---|---|---|---|---|---|---|---|
| 1778069293 | 5.56° C | 99% | 1006.5 hPa | 0 mm | - | - | - |
| 1778062095 | 6.11° C | 99% | 1006.5 hPa | 1.78 mm | - | - | - |
| 1778061205 | 6.11° C | 99% | 1006.9 hPa | 0 mm | - | - | - |
| 1778060294 | 6.67° C | 99% | 1006.5 hPa | 0 mm | - | - | - |
| 1778059402 | 6.67° C | 99% | 1006.5 hPa | 0 mm | - | - | - |
| 1778058498 | 6.67° C | 99% | 1006.5 hPa | 0 mm | - | - | - |
| 1778057607 | 6.67° C | 99% | 1006.2 hPa | 0 mm | - | - | - |
| 1778057073 | 6.67° C | 99% | 1006.2 hPa | 0 mm | - | - | - |
| 1778056121 | 6.67° C | 99% | 1006.5 hPa | 0 mm | - | - | - |
| 1778055036 | 7.22° C | 99% | 1006.5 hPa | 1.78 mm | - | - | - |
| 1778054178 | 7.22° C | 99% | 1006.5 hPa | 0 mm | - | - | - |
| 1778053094 | 7.78° C | 99% | 1007.6 hPa | 1.78 mm | - | - | - |
| 1778052193 | 7.78° C | 99% | 1007.6 hPa | 1.78 mm | - | - | - |
| 1778051293 | 7.78° C | 99% | 1007.6 hPa | 1.78 mm | - | - | - |
| 1778049494 | 7.78° C | 99% | 1007.2 hPa | 3.56 mm | - | - | - |
| 1778048593 | 7.78° C | 99% | 1007.6 hPa | 0 mm | - | - | - |
| 1778047693 | 7.78° C | 99% | 1007.2 hPa | 1.78 mm | - | - | - |
| 1778046792 | 7.78° C | 99% | 1007.6 hPa | 0 mm | - | - | - |
| 1778045893 | 7.22° C | 99% | 1007.6 hPa | 0 mm | - | - | - |
| 1778044992 | 7.22° C | 99% | 1007.6 hPa | 0 mm | - | - | - |
| 1778044092 | 6.67° C | 99% | 1007.6 hPa | 0 mm | - | - | - |
| 1778043192 | 6.67° C | 99% | 1007.6 hPa | 0 mm | - | - | - |
| 1778042292 | 6.67° C | 99% | 1007.6 hPa | 0 mm | - | - | - |
| 1778041395 | 6.67° C | 99% | 1007.6 hPa | 0 mm | - | - | - |
| 1778040492 | 6.67° C | 99% | 1007.9 hPa | 0 mm | - | - | - |
* Rain latest hour (hover to see other rain measurements)
** Current wind speed in m/s (hover to see current wind gust speed)